User: anonymous   Login
Location: Vancouver
(49.2500°N, 123.1330°W)
Time: 22:16:57
(UTC-07:00)
Language:

Oscar 11 - Orbit

View from above orbital plane
View from above orbital plane
View from above satellite
View from above satellite

Ground track
Ground track

The orbit data is extracted from the following two-line orbital elements,

1 14781U 84021B   17115.73791401 +.00000245 +00000-0 +36439-4 0  9993
2 14781 097.7032 163.3682 0008910 021.7451 338.4140 14.82885060761579
Epoch (UTC): 25 April 2017 17:42:35
Eccentricity: 0.0008910
inclination: 97.7032°
perigee height: 614 km
apogee height: 626 km
right ascension of ascending node: 163.3682°
argument of perigee: 21.7451°
revolutions per day: 14.82885060
mean anomaly at epoch: 338.4140°
orbit number at epoch: 76157

The dashed part of the orbit path shows where the satellite is in the earth's shadow,  

DLR